www.pogodaiklimat.ru

Погода и климат >> Архив погоды >> Великобритания >> Южный Уист


ПОГОДА на Южном Уисте

  • Прогноз погоды на Южном Уисте
  • Монитор погоды на Южном Уисте

АРХИВ ПОГОДЫ на Южном Уисте

Время (UTC), дата Ветер
(напр.,м/с)
 
Видим.   Явления Облачность Т
(С)
Тd
(С)
f
(%)
Тe
(С)
Тes
(С)
Комфортность P
(гПа)
Po
(гПа)
Тmin
(С)
Tmax
(С)
R
(мм)
R24
(мм)
S
(см)
16 13.07 З 5 >70 км н/о +14.7 +10.9 78 +13 +13 1026.3 1025.8
17 13.07 СЗ 5 >70 км н/о +14.6 +11.3 81 +13 +13 1026.4 1025.9
18 13.07 СЗ 4 >70 км н/о +14.5 +10.9 79 +13 +13 1026.4 1025.9 +16.0
19 13.07 СЗ 4 >70 км н/о +14.1 +10.7 80 +13 +13 1026.4 1026.0
20 13.07 СЗ 3 >70 км н/о +14.0 +10.8 81 +13 +13 1026.6 1026.1
21 13.07 СЗ 2 >70 км н/о +13.7 +10.8 83 +13 +13 1026.7 1026.2
22 13.07 З 2 >70 км н/о +13.6 +11.3 86 +13 +13 1026.8 1026.4
23 13.07 З 2 65 км н/о +13.5 +11.5 88 +13 +13 1026.9 1026.4
00 14.07 З 2 70 км н/о +13.5 +10.6 83 +13 +13 1026.9 1026.4
01 14.07 З 2 >70 км н/о +13.6 +9.7 77 +13 +13 1026.8 1026.3
02 14.07 З 2 60 км н/о +13.3 +10.5 83 +13 +13 1026.6 1026.2
03 14.07 ЮЗ 1 55 км н/о +13.1 +11.0 87 +13 +13 1026.3 1025.8
04 14.07 Ю 2 55 км н/о +12.8 +11.1 89 +12 +12 1026.1 1025.6
05 14.07 Ю 3 60 км н/о +13.1 +11.5 90 +12 +12 1026.0 1025.5
06 14.07 Ю 2 60 км н/о +13.6 +11.7 88 +13 +13 1025.9 1025.4 +12.8
07 14.07 Ю 2 70 км н/о +14.0 +11.7 86 +13 +13 1026.2 1025.7
08 14.07 ЮЗ 3 65 км н/о +14.4 +11.5 83 +14 +14 1026.3 1025.8
09 14.07 ЮЗ 3 60 км н/о +15.3 +12.5 83 +15 +15 1026.1 1025.6
10 14.07 ЮЗ 4 60 км н/о +14.8 +12.0 83 +14 +14 1026.1 1025.6
11 14.07 ЮЗ 4 >70 км н/о +15.0 +11.7 81 +14 +14 1026.1 1025.6
12 14.07 ЮЗ 4 >70 км н/о +15.5 +12.4 82 +14 +14 1026.1 1025.7
13 14.07 ЮЗ 5 70 км н/о +15.7 +12.5 81 +14 +14 1026.2 1025.7
14 14.07 ЮЗ 4 >70 км н/о +16.1 +13.1 82 +15 +15 1026.0 1025.5
15 14.07 З 5 60 км н/о +15.8 +13.0 83 +15 +15 1025.8 1025.4
16 14.07 ЮЗ 5 60 км н/о +16.0 +12.8 81 +15 +15 1025.6 1025.1
17 14.07 ЮЗ 4 70 км н/о +16.1 +12.7 80 +15 +15 1025.2 1024.7
18 14.07 З 4 70 км н/о +15.5 +12.1 80 +15 +15 1025.2 1024.7 +16.6
19 14.07 З 3 60 км н/о +15.5 +12.3 81 +15 +15 1024.8 1024.3
20 14.07 З 3 65 км н/о +14.8 +11.9 83 +14 +14 1024.5 1024.0
21 14.07 З 2 65 км н/о +13.6 +11.7 88 +13 +13 1024.1 1023.7
22 14.07 С 1 65 км н/о +12.9 +11.7 92 +13 +13 1024.1 1023.6
23 14.07 СЗ 2 50 км н/о +12.5 +11.7 95 +12 +12 1023.8 1023.3
00 15.07 С 2 35 км слаб. морось с дождем н/о +11.9 +11.2 95 +11 +11 1023.7 1023.2 0.0
01 15.07 СВ 3 30 км в посл. час дождь н/о +13.1 +12.5 96 +12 +12 1023.3 1022.8
02 15.07 СВ 3 50 км н/о +12.3 +11.7 96 +11 +11 1022.9 1022.4
03 15.07 В 2 65 км н/о +11.9 +11.4 97 +11 +11 1022.3 1021.8
04 15.07 В 3 27 км н/о +11.4 +10.6 95 +10 +10 1022.0 1021.5
05 15.07 В 2 40 км н/о +12.3 +11.8 97 +11 +11 1021.8 1021.3
06 15.07 В 2 65 км н/о +14.2 +13.2 94 +14 +14 1021.4 1020.9 +11.2 0.2
07 15.07 В 3 70 км н/о +15.6 +13.8 89 +15 +15 1020.9 1020.4
08 15.07 Ю 5 >70 км н/о +16.5 +12.6 78 +16 +16 1020.8 1020.3
09 15.07 Ю 5 >70 км н/о +17.5 +12.3 72 +17 +17 1020.7 1020.3
10 15.07 Ю 6 >70 км н/о +17.7 +12.4 71 +17 +17 1020.5 1020.0
11 15.07 Ю 6 65 км н/о +18.6 +14.1 75 +19 +19 1020.1 1019.6
12 15.07 Ю 7 >70 км н/о +19.1 +13.9 72 +20 +20 1020.0 1019.5
13 15.07 Ю 8 >70 км н/о +19.3 +13.7 70 +20 +20 1019.7 1019.2
14 15.07 Ю 6 60 км н/о +19.4 +14.5 73 +21 +21 комфорт 1019.5 1019.1
15 15.07 Ю 6 >70 км н/о +19.9 +13.4 66 +21 +21 комфорт 1019.3 1018.9
16 15.07 ЮЗ 8 45 км н/о +17.0 +13.5 80 +16 +16 1019.2 1018.7
17 15.07 ЮЗ 6 40 км н/о +17.0 +13.7 81 +16 +16 1019.1 1018.6
18 15.07 ЮЗ 4 35 км н/о +16.7 +13.5 81 +16 +16 1018.9 1018.4 +20.2
19 15.07 Ю 4 40 км н/о +16.3 +13.0 81 +16 +16 1018.7 1018.3
20 15.07 Ю 4 35 км н/о +15.7 +12.9 83 +15 +15 1018.4 1017.9
21 15.07 Ю 4 27 км н/о +14.4 +12.7 90 +13 +13 1018.2 1017.7
22 15.07 Ю 3 19 км н/о +14.0 +12.9 93 +13 +13 1018.2 1017.8
23 15.07 Ю 4 20 км н/о +14.4 +13.5 94 +13 +13 1017.9 1017.4
00 16.07 ЮВ 3 65 км н/о +15.0 +13.5 91 +14 +14 1017.2 1016.7
01 16.07 ЮВ 2 30 км н/о +14.1 +12.7 91 +13 +13 1017.1 1016.6
02 16.07 Ю 2 55 км н/о +14.0 +12.3 89 +13 +13 1016.8 1016.3
03 16.07 Ю 4 60 км н/о +14.9 +12.6 86 +14 +14 1016.4 1015.9
04 16.07 Ю 5 35 км н/о +14.7 +13.1 90 +13 +13 1016.2 1015.7
05 16.07 Ю 5 23 км н/о +14.2 +13.0 92 +13 +13 1016.0 1015.5
06 16.07 Ю 6 30 км н/о +14.6 +13.3 92 +13 +13 1015.7 1015.2 +14.0
07 16.07 Ю 7 25 км н/о +15.1 +13.8 92 +13 +13 1015.7 1015.2
08 16.07 ЮЗ 7 26 км н/о +15.9 +14.3 90 +14 +14 1015.8 1015.4
09 16.07 Ю 7 27 км н/о +16.2 +14.4 89 +15 +15 1015.8 1015.4
10 16.07 Ю 7 40 км н/о +17.0 +14.7 86 +16 +16 1015.6 1015.2
11 16.07 Ю 8 30 км н/о +16.7 +13.9 84 +15 +15 1015.5 1015.0
12 16.07 Ю 9 28 км н/о +17.1 +14.4 84 +16 +16 1015.4 1014.9
13 16.07 Ю 9 27 км н/о +17.9 +15.1 84 +17 +17 1015.2 1014.7
14 16.07 Ю 9 25 км н/о +16.5 +13.7 84 +15 +15 1015.1 1014.6
15 16.07 Ю 9 26 км н/о +16.6 +14.2 86 +15 +15 1014.8 1014.3
16 16.07 Ю 9 25 км н/о +16.6 +14.2 86 +15 +15 1014.1 1013.6
17 16.07 Ю 9 20 км н/о +16.2 +14.2 88 +14 +14 1013.9 1013.4
18 16.07 Ю 8 21 км н/о +16.2 +14.3 89 +15 +15 1013.5 1013.1 +18.0
19 16.07 Ю 8 22 км н/о +15.8 +13.9 88 +14 +14 1013.3 1012.8
20 16.07 Ю 7 25 км н/о +15.6 +13.9 90 +14 +14 1012.8 1012.3
21 16.07 Ю 6 23 км н/о +15.1 +13.8 92 +13 +13 1012.4 1012.0
22 16.07 Ю 7 18 км слаб. ливневой дождь н/о +15.0 +13.7 92 +13 +13 1011.9 1011.4
23 16.07 Ю 7 11 км слаб. дождь н/о +14.6 +13.8 95 +12 +12 1011.4 1011.0
00 17.07 Ю 7 30 км в посл. час дождь н/о +14.6 +13.8 95 +12 +12 1010.9 1010.4 0.8
01 17.07 Ю 7 45 км в посл. час дождь н/о +14.2 +13.3 94 +12 +12 1010.2 1009.7
02 17.07 Ю 7 35 км н/о +14.3 +13.5 95 +12 +12 1009.2 1008.8
03 17.07 Ю 9 7000 м ливневой дождь н/о +14.4 +13.4 94 +12 +12 1008.2 1007.7
04 17.07 Ю 9
{13}
18 км в посл. час дождь н/о +14.4 +13.6 95 +12 +12 1007.1 1006.6
05 17.07 Ю 10
{14}
27 км слаб. ливневой дождь н/о +14.2 +13.1 93 +11 +11 1006.1 1005.6
06 17.07 Ю 10-15
{16}
9000 м ливневой дождь н/о +14.1 +13.4 96 +11 +11 1005.4 1004.9 +14.0 4
07 17.07 Ю 11
{15}
5000 м слаб. дождь н/о +14.3 +13.6 96 +11 +11 1004.5 1004.0
08 17.07 Ю 13
{16}
5000 м дождь н/о +14.2 +13.6 96 +11 +11 1003.8 1003.3
09 17.07 Ю 11-17
{17}
5000 м дождь н/о +14.1 +13.6 97 +11 +11 1003.3 1002.8
10 17.07 Ю 12
{16}
9000 м дождь н/о +14.2 +13.7 97 +11 +11 1002.9 1002.4
11 17.07 Ю 11
{17}
10 км слаб. дождь н/о +14.2 +13.7 97 +11 +11 1002.5 1002.1
12 17.07 Ю 12
{16}
4400 м слаб. ливневой дождь н/о +14.6 +14.1 97 +12 +12 1002.1 1001.6 12
13 17.07 Ю 11
{15}
1700 м в посл. час дождь н/о +14.8 +14.5 98 +12 +12 1002.0 1001.5
14 17.07 ЮЗ 6
{13}
35 км в посл. час дождь н/о +14.9 +14.2 96 +13 +13 1002.5 1002.0
15 17.07 З 7 30 км н/о +16.0 +14.6 91 +14 +14 1002.8 1002.3
16 17.07 З 7 26 км н/о +15.8 +13.4 86 +14 +14 1002.7 1002.3
17 17.07 ЮЗ 7 30 км н/о +15.2 +12.5 84 +13 +13 1002.6 1002.2
18 17.07 ЮЗ 5 15 км в посл. час дождь н/о +14.1 +13.0 93 +12 +12 1002.8 1002.4 +16.1 13
19 17.07 ЮЗ 7 23 км н/о +14.3 +13.1 92 +12 +12 1002.9 1002.5
20 17.07 ЮЗ 6 24 км н/о +14.2 +12.9 92 +12 +12 1002.8 1002.3
21 17.07 ЮЗ 6 23 км в посл. час дождь н/о +13.9 +12.9 94 +12 +12 1002.7 1002.2
22 17.07 ЮЗ 7 24 км н/о +13.7 +12.7 94 +11 +11 1002.6 1002.1
23 17.07 ЮЗ 6 20 км н/о +13.9 +12.8 93 +12 +12 1002.2 1001.7
00 18.07 ЮЗ 8 23 км н/о +13.9 +12.8 93 +11 +11 1002.0 1001.5 0.0
01 18.07 ЮЗ 8 4100 м слаб. ливневой дождь н/о +13.7 +12.8 94 +11 +11 1001.6 1001.2
02 18.07 ЮЗ 8 16 км в посл. час дождь н/о +13.2 +12.3 94 +10 +10 1001.2 1000.7
03 18.07 ЮЗ 9 18 км в посл. час дождь н/о +13.6 +12.7 94 +11 +11 1000.6 1000.1
04 18.07 ЮЗ 8 23 км в посл. час дождь н/о +13.4 +12.4 94 +11 +11 1000.2 999.7
05 18.07 ЮЗ 8 15 км в посл. час дождь н/о +13.7 +12.6 93 +11 +11 1000.3 999.8
06 18.07 ЮЗ 8 17 км н/о +13.7 +12.2 91 +11 +11 1000.3 999.9 +13.2 0.6
07 18.07 ЮЗ 8 20 км н/о +13.8 +12.2 90 +11 +11 1000.3 999.8
08 18.07 ЮЗ 8 17 км в посл. час дождь н/о +14.8 +13.3 91 +13 +13 1000.5 1000.0
09 18.07 ЮЗ 9 22 км н/о +15.1 +13.1 88 +13 +13 1000.3 999.9
10 18.07 ЮЗ 7 16 км в посл. час дождь н/о +14.6 +13.5 93 +12 +12 1000.3 999.9
11 18.07 ЮЗ 8 20 км н/о +15.0 +13.4 90 +13 +13 1000.4 999.9
12 18.07 ЮЗ 9 15 км в посл. час морось н/о +14.5 +13.4 93 +12 +12 1000.7 1000.2 2
13 18.07 ЮЗ 9 18 км в посл. час дождь н/о +15.9 +14.4 91 +14 +14 1000.9 1000.5
14 18.07 ЮЗ 8 12 км слаб. ливневой дождь н/о +14.8 +13.0 89 +13 +13 1001.1 1000.6
15 18.07 З 8 35 км в посл. час дождь н/о +15.6 +13.4 87 +14 +14 1001.5 1001.0
16 18.07 З 8 40 км н/о +15.8 +13.5 86 +14 +14 1001.9 1001.4
17 18.07 ЮЗ 9 29 км н/о +15.7 +13.3 86 +14 +14 1002.1 1001.6
18 18.07 ЮЗ 8 23 км н/о +15.2 +12.9 86 +13 +13 1002.3 1001.8 +16.5 2
19 18.07 ЮЗ 7 18 км н/о +14.7 +12.6 87 +13 +13 1002.5 1002.1
20 18.07 ЮЗ 8 21 км н/о +14.1 +12.5 90 +12 +12 1002.6 1002.1
21 18.07 ЮЗ 7 23 км н/о +13.7 +12.3 91 +11 +11 1002.7 1002.2
22 18.07 ЮЗ 7 22 км н/о +13.7 +12.5 92 +11 +11 1002.8 1002.3
23 18.07 ЮЗ 8 22 км н/о +13.9 +12.6 92 +11 +11 1002.8 1002.3
00 19.07 ЮЗ 7 23 км н/о +13.6 +12.4 92 +11 +11 1002.8 1002.3
01 19.07 ЮЗ 7 23 км н/о +13.4 +12.2 92 +11 +11 1002.8 1002.3
02 19.07 ЮЗ 7 26 км н/о +13.2 +11.9 92 +10 +10 1002.8 1002.3
03 19.07 ЮЗ 8 28 км н/о +13.3 +11.9 91 +11 +11 1002.7 1002.2
04 19.07 ЮЗ 7 30 км н/о +13.0 +11.6 91 +10 +10 1002.7 1002.3
05 19.07 ЮЗ 7 28 км н/о +13.2 +11.7 91 +11 +11 1002.7 1002.3
06 19.07 ЮЗ 7 28 км н/о +13.6 +11.9 89 +11 +11 1002.8 1002.3 +13.0
07 19.07 ЮЗ 7 30 км н/о +14.1 +11.9 87 +12 +12 1003.0 1002.5
08 19.07 ЮЗ 8 40 км н/о +15.0 +12.4 84 +13 +13 1003.0 1002.5
09 19.07 ЮЗ 8 30 км н/о +15.3 +13.2 87 +13 +13 1003.1 1002.6
10 19.07 ЮЗ 8 30 км н/о +15.7 +13.4 86 +14 +14 1003.1 1002.6
11 19.07 ЮЗ 6 35 км н/о +15.6 +13.0 85 +14 +14 1003.1 1002.7
12 19.07 ЮЗ 6 40 км н/о +16.2 +13.1 82 +15 +15 1003.3 1002.8
13 19.07 ЮЗ 6 35 км н/о +16.3 +13.2 82 +15 +15 1003.4 1002.9
14 19.07 ЮЗ 6 40 км н/о +15.8 +13.0 83 +14 +14 1003.2 1002.8
15 19.07 ЮЗ 5 50 км н/о +16.3 +12.8 80 +15 +15 1002.9 1002.4
17 19.07 З 4 40 км н/о +15.3 +12.8 85 +14 +14 1002.3 1001.8
18 19.07 З 4 45 км н/о +15.7 +12.4 81 +15 +15 1001.9 1001.5 +16.9
19 19.07 З 3 55 км н/о +15.0 +11.4 79 +14 +14 1001.8 1001.3
20 19.07 С 1 60 км н/о +14.1 +11.4 84 +14 +14 1001.7 1001.2
21 19.07 СЗ 2 60 км н/о +14.1 +11.4 84 +14 +14 1001.8 1001.3
22 19.07 СЗ 2 70 км н/о +13.6 +10.9 84 +13 +13 1001.7 1001.2
23 19.07 СЗ 3 45 км н/о +12.8 +11.0 89 +11 +11 1001.5 1001.0
00 20.07 С 3 55 км н/о +13.3 +11.6 89 +12 +12 1001.3 1000.8
01 20.07 С 3 40 км н/о +12.4 +11.2 92 +11 +11 1001.1 1000.6
02 20.07 С 4 55 км н/о +12.6 +11.3 92 +11 +11 1000.9 1000.4
03 20.07 СЗ 3 60 км н/о +11.9 +10.4 91 +10 +10 1000.7 1000.2
04 20.07 СЗ 4 >70 км н/о +12.1 +11.0 93 +10 +10 1000.8 1000.4
05 20.07 СЗ 5 >70 км н/о +12.5 +11.2 92 +10 +10 1001.0 1000.5
06 20.07 СЗ 4 >70 км н/о +13.5 +12.0 91 +12 +12 1001.1 1000.6 +11.8
07 20.07 СЗ 4 >70 км н/о +14.2 +12.1 87 +13 +13 1001.4 1000.9
08 20.07 З 5 >70 км н/о +14.7 +12.2 85 +13 +13 1001.8 1001.3
09 20.07 З 6 >70 км н/о +15.2 +12.5 84 +14 +14 1002.2 1001.7
10 20.07 З 6 >70 км н/о +15.3 +12.3 82 +14 +14 1002.8 1002.3
11 20.07 З 5 >70 км н/о +15.8 +12.7 82 +15 +15 1003.3 1002.8
12 20.07 З 6 >70 км н/о +15.6 +12.2 80 +14 +14 1003.8 1003.3
13 20.07 З 6 >70 км н/о +16.1 +12.7 80 +15 +15 1004.3 1003.8
14 20.07 З 6 >70 км н/о +16.5 +13.3 81 +15 +15 1004.8 1004.3
15 20.07 З 6 70 км н/о +16.5 +13.3 81 +15 +15 1005.3 1004.8

 

Местоположение метеостанции Южный Уист (Великобритания): широта 57.33 долгота -7.37 высота над уровнем моря 4 м.

В архиве по умолчанию представлена погода на Южном Уисте за последнюю неделю. Архивные данные за месяц целиком и за предыдущие месяцы, начиная с января 2011 года, Вы можете получить, выбрав интересующий диапазон дат из раскрывающегося списка и нажав кнопку "Ввод!".


*Определитесь, кто Вы:
робот инопланетянин человек

Внимание! Время в таблицах - всемирное. Для получения местного времени необходимо прибавить поправку, которая равна 0 ч.

Смотрите также архив погоды в соседних городах и на ближайших метеорологических станциях:

Погода на Скае (Великобритания) (95 км)
Погода на Тири (Великобритания) (97 км)
Погода на Перевале Bealach Na Ba (Великобритания) (102 км)
Погода в Сторновее (Великобритания) (117 км)
Погода в Олтбее (Великобритания) (120 км)
Погода на Озере Гласкарнок (Великобритания) (155 км)
Погода на Горе Аонах Мор (Великобритания) (156 км)
Погода на Станции Tulloch Bridge (Великобритания) (169 км)
Погода в Порт-Эллене (Великобритания) (196 км)
Погода на Алтнахарре (Великобритания) (204 км)

Пояснения к столбцам:

Ветер - указаны скорость ветра в м/с - средняя за 10 мин, порывы в срок и между сроками (в фигурных скобках) и направление, откуда дует ветер: С - северный, СВ - северо-восточный, В - восточный, ЮВ - юго-восточный, Ю - южный, ЮЗ - юго-западный, З - западный, СЗ - северо-западный.
Видимость - горизонтальная дальность видимости в метрах или километрах. При видимости от 1 до 10 км при отсутствии осадков обычно наблюдается дымка, при ухудшении видимости до 1 км и менее - туман. В сухую погоду видимость может ухудшаться дымом, пылью или мглою.
Явления - указаны атмосферные явления, наблюдавшиеся в срок или в последний час перед сроком; фигурными скобками обозначены явления, наблюдавшиеся между сроками (за 1-3 часа до срока); квадратными скобками обозначены град или гололедные отложения с указанием их диаметра в мм.
Облачность - указаны через наклонную черту общая и нижняя облачность в баллах и высота нижней границы облаков в метрах; квадратными скобками обозначены формы облаков: Ci - перистые, Cs - перисто-слоистые, Cc - перисто-кучевые, Ac - высококучевые, As - высокослоистые, Sc - слоисто-кучевые, Ns - слоисто-дождевые, Cu - кучевые, Cb - кучево-дождевые. Подробнее классификацию облаков см. в Атласе облаков (PDF).
T - Температура воздуха - температура, измеренная на высоте 2 м над землей.
Td - Температура точки росы - температура, при понижении до которой содержащийся в воздухе водяной пар достигнет насыщения.
f - Относительная влажность воздуха - влажноcть воздуха, измеренная на высоте 2 м над землей.
Te - Эффективная температура - температура, которую ощущает одетый по сезону человек в тени. Характеристика душности погоды. При расчете учитывается влияние влажности воздуха и скорости ветра на теплоощущения человека.
Tes - Эффективная температура на солнце - температура, которую ощущает человек, с поправкой на солнечный нагрев. Характеристика знойности погоды. Зависит от высоты солнца над горизонтом, облачности и скорости ветра. Ночью, в пасмурную погоду, а также при ветре 12 м/с и более поправка равна нулю.
P - Атмосферное давление - приведенное к уровню моря атмосферное давление.
Po - Атмосферное давление - измеренное на уровне метеостанции атмосферное давление.
Tmin - Минимальная температура - минимум температуры воздуха на высоте 2 м над землей.
Tmax - Максимальная температура - максимум температуры воздуха на высоте 2 м над землей.
R - Количество осадков - Количество выпавших осадков за период времени, мм. При наведении курсора мыши на число - период времени, за который выпало указанное количество осадков.
R24 - Количество осадков - Количество выпавших осадков за 24 часа, мм.
S - Снежный покров - Высота снежного покрова, см. При наведении курсора мыши на число - состояние снежного покрова и степень покрытия местности в баллах.